SL-4 R/B (43538 NORAD) Tracking and Keplerian Element Data

This shows tracking and keplerian element data for the satellite.

Feedback or suggestion? Click here.




ElementValue
Catalog43538
NameSL-4 R/B
Epoch Orbit43
Epoch Day193.53534106
Epoch Year2018
RAAN250.9779
Inclination51.6565
Eccentricity0.0007147
Argument of Perigee92.7389
Mean Anonmoly267.6769
Mean Motion16.42480623
Decay Rate0.06962272
L11 43538U 18058B 18193.53534106 .06962272 12463-4 34912-3 0 9990
L22 43538 51.6565 250.9779 0007147 92.7389 267.6769 16.42480623 435

Live tracking and technical data element details for SL-4 R/B (NORAD 43538). SL-4 R/B can be tracked NOW for your location showing map with azimuth and elevation plus other details from your city location.

Track the satellite on the map from your city or location and see movement details for azimuth, elevation, latitude, longitude, range, height, and movement on the map or in text.







IsCatalogInMostPopularTable: catalog: 43538, numindb: 56
Update: records affected: 1



GetName: 43538 SL-4 R/B

Hit Count: updated at: Sat, 17 Nov 2018 03:06:10 GMT